[[{"header":{"parameterUnit":"m.s-1","parameterCategory":1,"la1":30.2991,"la2":30.254,"lo1":-89.0895,"lo2":-89.0444,"dy":0.0017,"dx":0.0017,"nx":28,"ny":28,"refTime":"2024-04-10T21:00:00:Z","depth":0,"parameterNumber":2,"parameterNumberName":"U-component_of_WINDS"},"data":[0,0,0,0,0,0,0,0,0,0,0,0,0,0,0,0,0,0,0,0,0,0,0,0,0,0,0,0,0,0,0,0,0,0,0,0,0,0,0,0,0,0,0,0,0,0,0,0,0,0,0,0,0,0,0,0,0,0,-4.0236,-4.0232,0,-3.9884,-3.988,-3.9876,-3.9639,-3.9637,-3.9635,-3.9634,-3.9264,-3.9255,-3.9247,0,0,0,0,0,0,0,0,0,0,0,0,0,-4.0692,-4.0685,-4.0236,-4.0232,-4.0227,-3.9884,-3.988,-3.9875,-3.9639,-3.9637,-3.9635,-3.9633,-3.9266,-3.9256,-3.9246,0,0,0,0,0,0,0,0,0,0,0,0,0,-4.0433,-4.0683,-4.0237,-4.0069,-4.005,-3.9885,-3.9879,-3.9873,-3.9639,-3.9637,-3.9635,-3.9632,-3.927,-3.9257,-3.9245,-3.9217,0,0,-3.9207,-3.9201,0,0,0,0,0,0,0,0,-4.0448,-4.0416,-4.0098,-4.008,-4.0059,-3.9803,-3.9904,-3.9653,-3.964,-3.9795,-3.9634,-3.9631,-3.9444,-3.9417,-3.9356,-3.9199,-3.9184,-3.9206,-3.9198,-3.9193,-3.9189,0,0,0,0,0,0,0,-4.0466,-4.043,-4.0096,-4.0093,-4.0069,-4.0007,-3.9967,-3.9856,-3.9637,-3.9781,-3.9763,-3.9725,-3.9433,-3.9369,-3.9346,-3.9178,-3.9206,-3.9195,-3.9187,-3.9182,-3.8977,-3.8979,0,0,0,0,0,0,-4.0512,-4.0447,-4.0107,-4.0086,-4.0252,-4.0001,-3.9956,-3.9887,-3.9638,-3.9598,-3.9728,-3.9716,-3.9391,-3.9361,-3.9332,-3.928,-3.9193,-3.9181,-3.9174,-3.8975,-3.8977,-3.898,0,0,0,0,0,0,-4.0523,-4.0484,-4.0121,-4.0261,-4.021,-3.9996,-3.992,-3.9882,-3.9817,-3.9598,-3.9557,-3.9703,-3.9388,-3.9349,-3.9247,-3.9264,-3.9175,-3.9164,-3.8973,-3.8976,-3.8979,-3.9179,0,0,0,0,0,0,-4.0537,-4.049,-4.0479,-4.0263,-4.0204,-4.0047,-3.9921,-3.9877,-3.9798,-3.9778,-3.9564,-3.9526,-3.9383,-3.9267,-3.9235,-3.9245,-3.9154,-3.897,-3.8974,-3.8978,-3.9169,-3.9188,-3.9204,0,0,0,0,0,-4.0554,-4.0548,-4.048,-4.044,-4.0187,-4.0048,-4.0014,-3.9853,-3.98,-3.9786,-3.9644,-3.9532,-3.9268,-3.9259,-3.922,-3.9227,-3.8968,-3.8973,-3.8977,-3.9162,-3.9184,-3.9204,0,0,0,0,0,0,-4.0767,-4.0516,-4.0438,-4.0362,-4.0229,-4.0009,-3.9986,-3.9883,-3.9759,-3.9746,-3.9549,-3.9502,-3.9419,-3.9312,-3.9307,-3.9185,-3.9104,-3.9102,-3.9258,-3.9278,-3.9295,-3.9321,-3.9144,0,0,0,0,0,-4.0807,-4.0719,-4.0502,-4.0456,-4.0393,-4.0203,-4.0136,-4.0024,-3.9876,-3.9817,-3.9668,-3.9526,-3.941,-3.9338,-3.922,-3.9154,-3.9101,-3.9139,-3.9157,-3.9172,-3.9171,-3.9125,-3.9138,-3.8995,-3.8995,-3.8995,0,0,-4.0884,-4.0736,-4.0692,-4.0495,-4.0378,-4.0288,-4.0156,-4.0066,-3.9995,-3.9802,-3.9697,-3.9583,-3.9411,-3.9327,-3.9281,-3.9235,-3.9199,-3.9178,-3.9192,-3.9181,-3.9131,-3.9145,-3.9157,-3.8998,-3.8997,-3.8997,0,0,-4.098,-4.0861,-4.0809,-4.0696,-4.0522,-4.0395,-4.0383,-4.0178,-4.0096,-3.9988,-3.984,-3.9752,-3.9558,-3.9441,-3.9356,-3.9409,-3.93,-3.9376,-3.9465,-3.9423,-3.9434,-3.9443,-3.9459,-3.9467,-3.9376,-3.9377,-3.9377,0,-4.1098,-4.096,-4.0794,-4.0713,-4.0629,-4.0454,-4.0397,-4.0294,-4.0089,-4.0034,-3.9986,-3.9738,-3.961,-3.9494,-3.9507,-3.9446,-3.9422,-3.9398,-3.9447,-3.9454,-3.946,-3.9472,-3.9479,-3.9387,-3.9386,-3.9384,-3.9384,0,-4.1111,-4.1018,-4.0995,-4.0807,-4.072,-4.0652,-4.0472,-4.0404,-4.03,-4.0178,-4.0068,-3.9909,-3.9754,-3.9719,-3.9615,-3.9588,-3.9564,-3.9485,-3.9399,-3.9486,-3.9495,-3.9498,-3.9401,-3.9398,-3.9395,-3.9392,0,0,-4.1329,-4.1051,-4.1046,-4.0957,-4.0753,-4.0675,-4.0598,-4.045,-4.0394,-4.026,-4.0187,-4.0027,-3.9952,-3.9856,-3.9737,-3.9701,-3.9749,-3.9624,-3.9617,-3.9651,-3.9705,-3.9765,-3.9774,-3.9677,-3.9678,-3.9678,-3.9719,0,-4.1391,-4.1248,-4.1096,-4.1003,-4.0913,-4.0746,-4.0677,-4.0543,-4.0426,-4.0329,-4.0198,-4.0087,-3.9998,-3.9938,-3.9895,-3.9754,-3.9757,-3.9748,-3.9603,-3.96,-3.9649,-3.9778,-3.9841,-3.9887,-3.9721,-3.9722,-3.9722,0,-4.1445,-4.1322,-4.1222,-4.1026,-4.0982,-4.0924,-4.0776,-4.0687,-4.053,-4.0447,-4.0341,-4.0216,-4.0122,-4.005,-3.9915,-3.9913,-3.9845,-3.9766,-3.9764,-3.9741,-3.9665,-3.9757,-3.9898,-3.9905,-3.9726,-3.9726,-3.9726,0,-4.1611,-4.142,-4.1334,-4.1264,-4.1034,-4.0997,-4.0899,-4.074,-4.0661,-4.053,-4.0475,-4.0335,-4.0258,-4.015,-3.9989,-3.9952,-3.987,-3.9785,-3.9795,-3.9799,-3.9783,-3.9786,-3.9913,-3.9745,-3.9745,-3.9745,-3.9745,0,-4.1694,-4.1639,-4.1406,-4.1353,-4.1285,-4.111,-4.1046,-4.0932,-4.0792,-4.0711,-4.0558,-4.0484,-4.0277,-4.0178,-4.0051,-3.9958,-3.9924,-3.9851,-3.9818,-3.9863,-3.9873,-3.9813,-3.9805,-3.9747,-3.9746,-3.9746,-3.9746,0,-4.1867,-4.1709,-4.1605,-4.1397,-4.1344,-4.1302,-4.1122,-4.1062,-4.0938,-4.0837,-4.0803,-4.0606,-4.0481,-4.0311,-4.0133,-4.0047,-3.9969,-3.9918,-4.0024,-4.0003,-4.0021,-4.0021,-4.0112,-4.0114,-3.9951,-3.9953,-3.9954,0,-4.1929,-4.1883,-4.1672,-4.1609,-4.1517,-4.1417,-4.1336,-4.1162,-4.1083,-4.0902,-4.0863,-4.0728,-4.0609,-4.0417,-4.0255,-4.0118,-4.006,-4.0101,-4.0037,-4.0084,-4.0056,-4.006,-4.0052,-4.0116,-4.0119,-4.0121,-4.0123,0,-4.2056,-4.1981,-4.1873,-4.1737,-4.1647,-4.153,-4.1406,-4.1362,-4.1161,-4.108,-4.0953,-4.0862,-4.0681,-4.0547,-4.0388,-4.0281,-4.0167,-4.0145,-4.0139,-4.0183,-4.0245,-4.0209,-4.0062,-4.0143,-4.0141,-4.0139,-4.0138,-4.0137,-4.2171,-4.2122,-4.1967,-4.1851,-4.1741,-4.1629,-4.1562,-4.1431,-4.1323,-4.1165,-4.1068,-4.0945,-4.0786,-4.0561,-4.046,-4.0358,-4.0312,-4.0305,-4.0302,-4.0303,-4.0317,-4.0266,-4.0329,-4.0328,-4.0327,-4.0326,-4.0326,0,-4.2287,-4.218,-4.2076,-4.1909,-4.1818,-4.1724,-4.1582,-4.151,-4.1404,-4.1268,-4.1157,-4.1009,-4.0878,-4.0708,-4.0563,-4.0514,-4.0458,-4.0482,-4.0482,-4.0458,-4.0367,-4.0385,-4.053,-4.053,-4.053,-4.053,-4.053,-4.053,-4.2337,-4.2248,-4.2155,-4.2008,-4.1898,-4.178,-4.1706,-4.1601,-4.1491,-4.1335,-4.1227,-4.1118,-4.0967,-4.0811,-4.0685,-4.0638,-4.059,-4.063,-4.0566,-4.0483,-4.0465,-4.0447,-4.0463,-4.0622,-4.0622,-4.0664,-4.0665,-4.0665]},{"header":{"parameterUnit":"m.s-1","parameterCategory":1,"la1":30.2991,"la2":30.254,"lo1":-89.0895,"lo2":-89.0444,"dy":0.0017,"dx":0.0017,"nx":28,"ny":28,"refTime":"2024-04-10T21:00:00:Z","depth":0,"parameterNumber":3,"parameterNumberName":"V-component_of_WINDS"},"data":[0,0,0,0,0,0,0,0,0,0,0,0,0,0,0,0,0,0,0,0,0,0,0,0,0,0,0,0,0,0,0,0,0,0,0,0,0,0,0,0,0,0,0,0,0,0,0,0,0,0,0,0,0,0,0,0,0,0,1.1841,1.1844,0,1.2138,1.2141,1.2144,1.22,1.2198,1.2196,1.2193,1.251,1.252,1.2531,0,0,0,0,0,0,0,0,0,0,0,0,0,1.134,1.1349,1.184,1.1844,1.1848,1.2137,1.2141,1.2145,1.2201,1.2198,1.2195,1.2192,1.2506,1.2519,1.2532,0,0,0,0,0,0,0,0,0,0,0,0,0,1.1589,1.1351,1.184,1.191,1.1919,1.2136,1.2141,1.2146,1.2201,1.2198,1.2194,1.2191,1.2502,1.2518,1.2533,1.2705,0,0,1.2582,1.2589,0,0,0,0,0,0,0,0,1.1575,1.1608,1.1896,1.1906,1.1916,1.2128,1.2081,1.2334,1.2202,1.2095,1.2193,1.2189,1.2387,1.2412,1.2476,1.272,1.2733,1.2584,1.2594,1.26,1.2605,0,0,0,0,0,0,0,1.1558,1.1595,1.1958,1.19,1.1913,1.1933,1.1964,1.2129,1.2258,1.2104,1.2108,1.2142,1.2392,1.246,1.2484,1.2738,1.2583,1.2598,1.2608,1.2614,1.315,1.3154,0,0,0,0,0,0,1.1526,1.158,1.1949,1.1967,1.1733,1.1945,1.198,1.2064,1.2256,1.2282,1.2145,1.2144,1.2435,1.2465,1.2495,1.2716,1.26,1.2615,1.2625,1.3145,1.3151,1.3156,0,0,0,0,0,0,1.1515,1.1558,1.1937,1.1775,1.1825,1.1957,1.2051,1.2072,1.214,1.2287,1.2312,1.219,1.2433,1.2473,1.2654,1.2727,1.2623,1.2637,1.314,1.3147,1.3153,1.3153,0,0,0,0,0,0,1.15,1.1553,1.1615,1.1776,1.1833,1.2085,1.2055,1.208,1.2166,1.2168,1.2336,1.2361,1.2433,1.263,1.267,1.2747,1.265,1.3134,1.3143,1.3151,1.3147,1.3159,1.3169,0,0,0,0,0,1.1482,1.1603,1.1618,1.1662,1.1912,1.2089,1.2122,1.2199,1.2172,1.2239,1.2335,1.2356,1.2712,1.2648,1.2694,1.2777,1.313,1.314,1.3151,1.3142,1.3157,1.3169,0,0,0,0,0,0,1.145,1.1625,1.1643,1.1819,1.1939,1.2098,1.2183,1.2211,1.2343,1.2339,1.2434,1.2472,1.265,1.2732,1.2657,1.2959,1.292,1.294,1.2898,1.2913,1.2924,1.2902,1.2663,0,0,0,0,0,1.1462,1.1586,1.1735,1.1877,1.1936,1.205,1.2129,1.2179,1.2308,1.236,1.2468,1.2597,1.274,1.2831,1.2969,1.316,1.3202,1.324,1.3251,1.326,1.3277,1.3394,1.3415,1.319,1.319,1.319,0,0,1.1491,1.1603,1.1675,1.1874,1.1971,1.2105,1.2091,1.223,1.2332,1.2382,1.256,1.2646,1.2797,1.2986,1.3074,1.3059,1.3349,1.3273,1.3278,1.3292,1.3406,1.3428,1.3446,1.3197,1.3196,1.3195,0,0,1.1612,1.1706,1.1838,1.1937,1.2086,1.2162,1.2194,1.2352,1.241,1.259,1.2633,1.2759,1.2998,1.3107,1.3193,1.3365,1.3393,1.3408,1.3466,1.3579,1.3597,1.3613,1.3681,1.3704,1.3424,1.3424,1.3424,0,1.163,1.1826,1.1903,1.2042,1.2132,1.2182,1.2322,1.2416,1.2604,1.2668,1.2648,1.2956,1.3061,1.328,1.3323,1.3389,1.3435,1.3389,1.3587,1.3604,1.3621,1.3687,1.3711,1.3425,1.3425,1.3425,1.3425,0,1.1846,1.1982,1.2072,1.225,1.2351,1.2489,1.2594,1.2687,1.2731,1.2812,1.3001,1.3129,1.3297,1.3353,1.3396,1.3582,1.3569,1.3566,1.353,1.3642,1.3706,1.3732,1.3427,1.3426,1.3426,1.3426,0,0,1.195,1.2174,1.2206,1.2292,1.2463,1.2574,1.2719,1.2882,1.2964,1.3094,1.3224,1.343,1.3432,1.353,1.3587,1.3685,1.3823,1.3673,1.3678,1.3701,1.4046,1.4049,1.4076,1.3842,1.3847,1.3851,1.4035,0,1.2096,1.2351,1.2428,1.2646,1.2778,1.2832,1.296,1.3084,1.3165,1.3295,1.3388,1.3534,1.3521,1.3582,1.3682,1.3785,1.3895,1.3772,1.3971,1.3977,1.3934,1.4109,1.4111,1.4278,1.406,1.4064,1.4067,0,1.2298,1.2431,1.266,1.2823,1.2882,1.2994,1.3155,1.3276,1.3421,1.3475,1.3588,1.3639,1.3802,1.3756,1.3986,1.3901,1.3988,1.4053,1.4061,1.4085,1.403,1.4143,1.4332,1.4359,1.4106,1.4103,1.41,0,1.2359,1.2596,1.2766,1.2837,1.3029,1.3109,1.3194,1.3335,1.3431,1.3574,1.3639,1.3799,1.3888,1.4015,1.4111,1.4067,1.4337,1.4296,1.4392,1.439,1.4447,1.4443,1.4658,1.4496,1.4496,1.4495,1.4495,0,1.2515,1.2655,1.2797,1.2902,1.3064,1.3156,1.3316,1.3405,1.3531,1.3661,1.3718,1.3839,1.3957,1.4097,1.4175,1.4359,1.4397,1.4451,1.447,1.4448,1.4441,1.4508,1.45,1.4502,1.4501,1.4499,1.4498,0,1.261,1.271,1.29,1.3068,1.3114,1.3227,1.3374,1.3483,1.3569,1.3732,1.3777,1.3914,1.4082,1.419,1.4404,1.4457,1.4661,1.4674,1.461,1.462,1.4712,1.4704,1.4981,1.5025,1.4829,1.483,1.4832,0,1.2705,1.2814,1.2995,1.3084,1.3169,1.3311,1.341,1.3508,1.361,1.3789,1.3878,1.4049,1.4192,1.446,1.4582,1.475,1.4771,1.4857,1.4797,1.4774,1.478,1.4774,1.479,1.4867,1.4869,1.487,1.4871,0,1.2864,1.291,1.3047,1.3206,1.3322,1.3452,1.3582,1.3654,1.3776,1.3889,1.406,1.4171,1.4392,1.4565,1.4744,1.484,1.488,1.4889,1.4922,1.4901,1.4862,1.4891,1.4642,1.4883,1.4882,1.4881,1.488,1.488,1.2967,1.3069,1.3214,1.3369,1.3477,1.36,1.3712,1.3813,1.3956,1.4141,1.4193,1.4374,1.4527,1.4772,1.4871,1.502,1.501,1.5055,1.5067,1.5078,1.5082,1.4835,1.5053,1.5052,1.5052,1.5052,1.5052,0,1.3134,1.3231,1.3372,1.3553,1.3678,1.37,1.3849,1.3953,1.411,1.4247,1.4387,1.459,1.476,1.4898,1.5075,1.5168,1.5192,1.5212,1.5208,1.5232,1.5078,1.5035,1.5191,1.5191,1.519,1.519,1.519,1.519,1.3236,1.3414,1.3478,1.3714,1.3812,1.3988,1.4072,1.4189,1.4299,1.4521,1.4662,1.4749,1.4891,1.508,1.524,1.5277,1.5343,1.536,1.5402,1.5256,1.5241,1.5227,1.5187,1.5372,1.5373,1.5545,1.5546,1.5547]}]]